Regional Weather Roundup
Issued by NWS

Home | Current Version | Previous Version | Text Only | Print | Product List | Glossary On
Versions: 1 2 3 4 5 6 7 8 9 10 11 12 13 14 15 16 17 18 19 20 21 22 23 24 25 26 27 28 29 30 31 32 33 34 35 36 37 38 39 40 41 42 43 44 45 46 47 48 49 50
000
ASUS43 KOAX 240410
RWRNE

WEATHER ROUNDUP FOR NEBRASKA
NATIONAL WEATHER SERVICE OMAHA NE
1100 PM CDT MON OCT 23 2017

NOTES: SATELLITE DATA IS BEING USED TO AUGMENT CLOUD COVER ABOVE
       12000 FEET.
       "FAIR" INDICATES FEW OR NO CLOUDS BELOW 12,000 FEET WITH NO
       SIGNIFICANT WEATHER AND/OR OBSTRUCTIONS TO VISIBILITY.


NEZ001>004-019>022-054>056-240500-
NEBRASKA PANHANDLE

CITY           SKY/WX    TMP DP  RH WIND       PRES   REMARKS
SCOTTSBLUFF    CLEAR     45  17  32 NW12      30.50R
ALLIANCE       CLEAR     31  19  61 W13       30.45R HAZE    WCI  21
CHADRON        CLEAR     39  19  44 NW8       30.46R WCI  33
GORDON         FAIR      40  22  48 W8        30.40S WCI  34
KIMBALL        CLEAR     37  19  48 N10       30.51R WCI  29
SIDNEY         PTCLDY    36  19  50 NW10      30.48R WCI  28
$$

NEZ057>060-069>072-079>082-240500-
SOUTHWEST NEBRASKA

CITY           SKY/WX    TMP DP  RH WIND       PRES   REMARKS
NORTH PLATTE   CLEAR     35  26  69 NW8       30.36R WCI  29
IMPERIAL       CLEAR     43  20  39 NW10      30.41R
LEXINGTON      CLEAR     50  22  33 NW16G22   30.31S
MCCOOK         CLEAR     46  22  38 NW13      30.37R
OGALLALA       CLEAR     44  21  40 NW13      30.41S
$$

NEZ005>010-023>029-035>040-094-240500-
NORTH CENTRAL NEBRASKA

CITY           SKY/WX    TMP DP  RH WIND       PRES   REMARKS
VALENTINE      CLEAR     51  22  31 NW16G24   30.31R
AINSWORTH      PTCLDY    49  25  39 NW17G23   30.28S
BROKEN BOW     PTCLDY    49  24  37 NW20G28   30.26S
O`NEILL        PTCLDY    47  30  51 NW14      30.20S
ORD            CLEAR     49  26  41 NW17      30.22R
THEDFORD       PTCLDY    48  23  36 NW18      30.33S
$$

NEZ041-046>049-061>064-073>077-083>087-240500-
SOUTH CENTRAL NEBRASKA

CITY           SKY/WX    TMP DP  RH WIND       PRES   REMARKS
GRAND ISLAND   PTCLDY    45  31  58 W10       30.22S
AURORA         PTCLDY    49  30  48 NW12G20   30.20S
HASTINGS       CLEAR     43  29  57 W12       30.24S
HEBRON         CLEAR     47  33  58 W6        30.21R
HOLDREGE       CLEAR     46  26  45 W10       30.28F
KEARNEY        CLEAR     48  25  40 NW14      30.26S
YORK           PTCLDY    48  32  53 NW15      30.17F
$$

NEZ011>018-030>034-042>045-240500-
NORTHEAST NEBRASKA

CITY           SKY/WX    TMP DP  RH WIND       PRES   REMARKS
NORFOLK        CLOUDY    51  32  48 NW18G28   30.10F
BLAIR          CLOUDY    53  34  48 NW15      30.05F
COLUMBUS       PTCLDY    48  35  60 W16       30.14S
FREMONT        CLOUDY    51  34  52 W16       30.09F
TEKAMAH        PTCLDY    52  32  46 NW16G23   30.05F
WAYNE          MOCLDY    49  31  48 NW17      30.08F
$$

NEZ050>053-065>068-078-088>093-240500-
SOUTHEAST NEBRASKA

CITY           SKY/WX    TMP DP  RH WIND       PRES   REMARKS
LINCOLN        CLEAR     50  35  56 MISG      30.13F
OMAHA EPPLEY   CLOUDY    53  33  46 NW22G29   30.04F
BEATRICE       CLEAR     48  35  60 W10       30.14F
FALLS CITY     CLEAR     49  33  54 W13       30.08F
NEBRASKA CITY  MOCLDY    51  34  51 NW18G24   30.08S
PLATTSMOUTH    CLOUDY    52  34  50 NW22G30   30.06F
$$

NEZ044-045-051>053-067-240500-
OMAHA AREA

CITY           SKY/WX    TMP DP  RH WIND       PRES   REMARKS
OMAHA EPPLEY   CLOUDY    53  33  46 NW22G29   30.04F
BLAIR          CLOUDY    53  34  48 NW15      30.05F
FREMONT        CLOUDY    51  34  52 W16       30.09F
MILLARD        CLOUDY    55  35  46 NW14G24   30.07F
OFFUTT AFB     CLOUDY    53  32  45 NW16G25   30.05S
PLATTSMOUTH    CLOUDY    52  34  50 NW22G30   30.06F
WAHOO          CLOUDY    50  36  57 W12       30.10F
$$




USA.gov is the U.S. government's official web portal to all federal, state and local government web resources and services.